DELTA 1 DEB, 42661

Orbit data source: Space-Track

DELTA 1 DEB, 42661 is space debris in SSO originally from a launch on Thu, 12 Jun 1975 UTC launched from the Air Force Western Test Range (AFWTR). Debris objects in space refer to the collection of defunct objects orbiting the Earth. Examples of debris include non-operational satellites, rocket bodies, and fragments generated from explosions, collisions, or faulty payload assembly.

Loading next visibility...
Identifier
42661, 1975-052MW
Orbit
SSO
Country
Flag of USUS
Related business
Manufacturer
Unknown
Mission
Spacecraft
Bus & Motor
Unknown
Mass
Unknown
Launch date (UTC)
1975-06-12 (51 years ago)
Launch vehicle
Unknown
Launch site
Air Force Western Test Range (AFWTR)
Object type
Payload
Rocket body
Debris
Shape & HBR
Unknown shape, 0.1 m
Radar Cross Section
Small (<0.1 m²)

Expand to show TLE details & history
Last TLE update: 2 days ago

TLE from 2 days ago
0 DELTA 1 DEB
1 42661U 75052MW  26171.31280416  .00000578  00000-0  18475-3 0  9998
2 42661  98.7894 189.6922 0002692 291.9572  68.1331 14.43472516660390
Epoch: 2026-06-20T07:30Z
TLE epoch observation values (Epoch: 2026-06-20T07:30:26.279Z)
Latitude
-0.00001°
Longitude
168.55348°
Altitude
749.278 km
Speed
7.48 km/s
True Right ascension
12h 38m 46s
True Declination
0° 00' 00"
Sunlit
Object was in daylight at epoch
Visualization orbit readout
Latitude
Unknown
Longitude
Unknown
Altitude
Unknown
Speed
Unknown
Apparent Right ascension
Unknown
Apparent Declination
Unknown
Sunlit
N/A
Visualization observer readout
Local Sidereal Time
21:52:28
Azimuth
Unknown
Elevation
Unknown
Doppler factor
Unknown
Orbital elements
Apogee altitude
746.097 km
Perigee altitude
742.262 km
Semi-major axis
7,122.316 km
Eccentricity
0.00027
Inclination
98.7894°
RAAN
189.6922°
Arg. of periapsis
291.9572°
True anomaly
68.16173°
Mean anomaly
68.1331°
Eccentric anomaly
68.14742°
Mean motion
3.61087 °/min
Orbital period
99.7 mins
BSTAR
0.00018475
Loading maneuver chart data...
Computing Atmospheric mass density...

Documentation

Showing up to 5 results
|